Voltar ao catálogo

HEAD-3C

AtivoComunicaçõesLEO
NORAD 57628·PAYLOAD·🇨🇳 China

Lançado Aug 14, 2023 de Xichang Satellite Launch Center

Loading…

Próximas Passagens (próximas 24 horas)

TLE

AtualizadoSource: Space-Track

Época: Sep 14, 2026, 09:39 UTC

1 57628U 23121C   26257.40271812  .00000409  00000-0  11196-3 0  9998
2 57628  44.9975 219.4504 0006632   2.9636 357.1260 14.62371906164796

Acompanhe HEAD-3C em tempo real com AllMySat

Download on the App Store